Location: Bratislava
(0.0000°N, 17.1167°E)
Time: 05:24:29
(UTC+01:00)

Aureole 3 - Pass Details

Date: 24 January 2021
Orbit: 381 x 1231 km, 82.5° (Epoch: 04 March)

Event Time Altitude Azimuth Distance (km) Brightness Sun altitude
Rises 18:23:32 0° 2° (N) 2,255 6.2 -4.7°
Reaches altitude 10° 18:25:25 10° 5° (N) 1,435 5.2 -5.1°
Maximum altitude 18:28:25 61° 87° (E) 488 2.8 -5.8°
Drops below altitude 10° 18:31:54 10° 168° (SSE) 1,662 5.9 -6.7°
Sets 18:34:14 0° 171° (S) 2,664 7.0 -7.2°
